STARLINK-1538 (46071 NORAD) Tracking and Keplerian Element Data

This shows tracking and keplerian element data for the satellite.

Feedback or suggestion? Click here.




ElementValue
Catalog46071
NameSTARLINK-1538
Epoch Orbit1913
Epoch Day338.99968334
Epoch Year2020
RAAN83.4116
Inclination53.0023
Eccentricity0.0001249
Argument of Perigee81.5791
Mean Anonmoly278.5338
Mean Motion15.05579863
Decay Rate1.227E-05
L11 46071U 20055AW 20338.99968334 .00001227 00000-0 10334-3 0 9993
L22 46071 53.0023 83.4116 0001249 81.5791 278.5338 15.05579863 19132

Live tracking and technical data element details for STARLINK-1538 (NORAD 46071). STARLINK-1538 can be tracked NOW for your location showing map with azimuth and elevation plus other details from your city location.

Track the satellite on the map from your city or location and see movement details for azimuth, elevation, latitude, longitude, range, height, and movement on the map or in text.







IsCatalogInMostPopularTable: catalog: 46071, numindb: 21
Update: records affected: 1



GetName: 46071 STARLINK-1538

Hit Count: updated at: Sat, 05 Dec 2020 06:04:47 GMT